Fort Morgan, CO

11:55 PM MST on February 22, 2018 (GMT -0700)
Fort Morgan

Weather History for KFMM - March, 2013

Change the Weather History Date:

Monday, March 25, 2013

  Actual Average (KAKO) Record (KAKO)
Temperature  
Mean Temperature 20 °F -  
Max Temperature 30 °F 54 °F 79 °F (1998)
Min Temperature 10 °F 27 °F -5 °F (1965)
Degree Days  
Heating Degree Days 45    
Moisture  
Dew Point 12 °F    
Average Humidity 74    
Maximum Humidity 90    
Minimum Humidity 55    
Precipitation  
Precipitation 0.00 in - - ()
Sea Level Pressure  
Sea Level Pressure 30.24 in    
Wind  
Wind Speed 6 mph (West)    
Max Wind Speed 10 mph    
Max Gust Speed -    
Visibility 9 miles    
Events      
Averages and records for this station are not official NWS values.
T = Trace of Precipitation, MM = Missing Value Source: NWS Daily Summary

Daily Weather History Graph

Daily Weather History Graph

Search for Another Location

Airport or City:

Trip Planner

Search our weather history database for the weather conditions in past years. The results will help you decide how hot, cold, wet, or windy it might be!

Date:

Astronomy

Mar. 25, 2013 Rise Set
Actual Time 6:49 AM MDT 7:12 PM MDT
Civil Twilight 6:22 AM MDT 7:40 PM MDT
Nautical Twilight 5:50 AM MDT 8:12 PM MDT
Astronomical Twilight 5:17 AM MDT 8:44 PM MDT
Moon 5:46 PM MDT (3/25) 5:34 AM MDT (3/25)
Length of Visible Light 13h 17m
Length of Day
12h 22m
Waxing Gibbous, 97% of the Moon is Illuminated
Mar 25
Waxing Gibbous
Mar 27
Full
Apr 2
Last Quarter
Apr 10
New
Apr 18
First Quarter

Hourly Weather History & Observations

Time (MDT) Temp. Windchill Dew Point Humidity Pressure Visibility Wind Dir Wind Speed Gust Speed Precip Events Conditions
12:15 AM 15.8 °F 7.2 °F 10.0 °F 78% 30.22 in 10.0 mi NW 5.8 mph - N/A   Overcast
12:35 AM 16.3 °F 5.7 °F 10.2 °F 77% 30.22 in 10.0 mi NW 8.1 mph - N/A   Overcast
12:55 AM 16.2 °F 6.5 °F 10.0 °F 77% 30.22 in 10.0 mi NNW 6.9 mph - N/A   Overcast
1:15 AM 16.0 °F 8.8 °F 10.4 °F 79% 30.23 in 10.0 mi NW 4.6 mph - N/A   Overcast
1:35 AM 16.5 °F 9.4 °F 10.4 °F 77% 30.23 in 10.0 mi NNW 4.6 mph - N/A   Overcast
1:55 AM 16.3 °F - 11.3 °F 81% 30.23 in 10.0 mi Calm Calm - N/A   Overcast
2:15 AM 16.0 °F - 12.2 °F 85% 30.24 in 10.0 mi Calm Calm - N/A   Overcast
2:35 AM 16.3 °F - 11.5 °F 81% 30.24 in 3.0 mi Calm Calm - N/A   Overcast
2:55 AM 16.2 °F 7.6 °F 11.3 °F 81% 30.23 in 3.0 mi North 5.8 mph - N/A   Overcast
3:15 AM 15.3 °F 7.9 °F 10.8 °F 82% 30.23 in 4.0 mi North 4.6 mph - N/A   Overcast
3:35 AM 14.2 °F 5.3 °F 10.4 °F 85% 30.23 in 4.0 mi North 5.8 mph - N/A   Overcast
3:55 AM 13.8 °F 8.0 °F 10.4 °F 86% 30.23 in 5.0 mi North 3.5 mph - N/A   Overcast
4:15 AM 13.6 °F - 10.4 °F 87% 30.23 in 7.0 mi Calm Calm - N/A   Overcast
4:35 AM 13.5 °F 5.8 °F 10.4 °F 88% 30.23 in 7.0 mi NNW 4.6 mph - N/A   Overcast
4:55 AM 11.5 °F 2.1 °F 8.4 °F 87% 30.23 in 10.0 mi North 5.8 mph - N/A   Scattered Clouds
5:15 AM 10.8 °F 1.2 °F 7.7 °F 87% 30.23 in 10.0 mi North 5.8 mph - N/A   Mostly Cloudy
5:35 AM 10.9 °F 0.2 °F 8.1 °F 88% 30.23 in 7.0 mi North 6.9 mph - N/A   Scattered Clouds
5:55 AM 10.9 °F 2.9 °F 8.4 °F 90% 30.24 in 10.0 mi NNW 4.6 mph - N/A   Mostly Cloudy
6:15 AM 10.9 °F 1.4 °F 8.2 °F 89% 30.24 in 10.0 mi WNW 5.8 mph - N/A   Overcast
6:35 AM 11.8 °F 2.5 °F 9.1 °F 89% 30.24 in 10.0 mi WNW 5.8 mph - N/A   Overcast
6:55 AM 11.5 °F 2.1 °F 9.0 °F 90% 30.24 in 10.0 mi West 5.8 mph - N/A   Overcast
7:15 AM 12.0 °F 1.5 °F 9.5 °F 90% 30.24 in 10.0 mi West 6.9 mph - N/A   Overcast
7:35 AM 12.0 °F 1.5 °F 9.5 °F 90% 30.26 in 10.0 mi West 6.9 mph - N/A   Scattered Clouds
7:55 AM 11.3 °F 1.9 °F 8.2 °F 87% 30.26 in 10.0 mi West 5.8 mph - N/A   Clear
8:15 AM 11.8 °F 1.3 °F 9.0 °F 88% 30.26 in 10.0 mi West 6.9 mph - N/A   Clear
8:35 AM 11.8 °F 3.9 °F 7.7 °F 83% 30.26 in 7.0 mi WSW 4.6 mph - N/A   Clear
8:55 AM 11.1 °F 1.7 °F 6.8 °F 83% 30.27 in 7.0 mi West 5.8 mph - N/A   Clear
9:15 AM 13.1 °F 5.4 °F 8.1 °F 80% 30.27 in 10.0 mi West 4.6 mph - N/A   Clear
9:35 AM 15.8 °F 10.2 °F 9.7 °F 77% 30.28 in 10.0 mi West 3.5 mph - N/A   Clear
9:55 AM 17.2 °F 8.9 °F 10.4 °F 75% 30.29 in 10.0 mi SW 5.8 mph - N/A   Clear
10:15 AM 16.7 °F 7.2 °F 9.7 °F 74% 30.29 in 10.0 mi WSW 6.9 mph - N/A   Clear
10:35 AM 17.1 °F 5.0 °F 10.8 °F 76% 30.28 in 10.0 mi West 10.4 mph - N/A   Clear
10:55 AM 18.0 °F 6.1 °F 11.7 °F 76% 30.28 in 10.0 mi WSW 10.4 mph - N/A   Clear
11:15 AM 19.6 °F 8.9 °F 12.6 °F 74% 30.28 in 10.0 mi West 9.2 mph - N/A   Clear
11:35 AM 21.2 °F 10.1 °F 13.8 °F 73% 30.27 in 10.0 mi West 10.4 mph - N/A   Clear
11:55 AM 23.2 °F 15.0 °F 14.7 °F 70% 30.27 in 10.0 mi West 6.9 mph - N/A   Clear
12:15 PM 24.1 °F 15.2 °F 14.9 °F 68% 30.26 in 10.0 mi West 8.1 mph - N/A   Clear
12:35 PM 25.5 °F 17.8 °F 15.3 °F 65% 30.26 in 10.0 mi SW 6.9 mph - N/A   Clear
12:55 PM 26.2 °F 17.8 °F 15.8 °F 65% 30.26 in 10.0 mi West 8.1 mph - N/A   Clear
1:15 PM 27.1 °F 19.7 °F 14.9 °F 60% 30.25 in 10.0 mi West 6.9 mph - N/A   Clear
1:35 PM 27.7 °F 22.4 °F 15.3 °F 60% 30.25 in 10.0 mi WSW 4.6 mph - N/A   Clear
1:55 PM 28.0 °F 24.2 °F 15.4 °F 59% 30.25 in 10.0 mi WSW 3.5 mph - N/A   Clear
2:15 PM 28.2 °F 22.0 °F 15.1 °F 58% 30.24 in 10.0 mi West 5.8 mph - N/A   Clear
2:35 PM 29.3 °F 24.3 °F 15.1 °F 55% 30.24 in 10.0 mi SW 4.6 mph - N/A   Clear
2:55 PM 30.2 °F 24.3 °F 16.0 °F 56% 30.24 in 10.0 mi WSW 5.8 mph - N/A   Clear
3:15 PM 29.8 °F 24.9 °F 15.6 °F 56% 30.23 in 10.0 mi WSW 4.6 mph - N/A   Clear
3:35 PM 30.0 °F 25.2 °F 16.0 °F 56% 30.23 in 10.0 mi WSW 4.6 mph - N/A   Clear
3:55 PM 30.0 °F 24.1 °F 15.6 °F 55% 30.22 in 10.0 mi SW 5.8 mph - N/A   Clear
4:15 PM 29.3 °F 22.3 °F 16.3 °F 58% 30.22 in 10.0 mi WSW 6.9 mph - N/A   Clear
4:35 PM 29.3 °F 23.2 °F 15.4 °F 56% 30.22 in 10.0 mi SW 5.8 mph - N/A   Clear
4:55 PM 28.9 °F 21.9 °F 14.9 °F 56% 30.22 in 10.0 mi South 6.9 mph - N/A   Clear
5:15 PM 28.2 °F 21.0 °F 15.1 °F 58% 30.21 in 10.0 mi SSW 6.9 mph - N/A   Clear
5:35 PM 27.5 °F 20.2 °F 14.5 °F 58% 30.21 in 10.0 mi SSW 6.9 mph - N/A   Clear
5:55 PM 27.3 °F 19.9 °F 14.4 °F 58% 30.22 in 10.0 mi SSW 6.9 mph - N/A   Clear
6:15 PM 26.4 °F 18.9 °F 14.2 °F 60% 30.22 in 10.0 mi SSW 6.9 mph - N/A   Clear
6:35 PM 25.2 °F 17.3 °F 14.0 °F 63% 30.22 in 10.0 mi SSW 6.9 mph - N/A   Clear
6:55 PM 23.5 °F 14.5 °F 13.1 °F 64% 30.22 in 10.0 mi SW 8.1 mph - N/A   Clear
7:15 PM 22.3 °F 16.1 °F 14.0 °F 71% 30.22 in 10.0 mi WSW 4.6 mph - N/A   Clear
7:35 PM 21.0 °F 13.4 °F 13.3 °F 72% 30.22 in 10.0 mi WSW 5.8 mph - N/A   Clear
7:55 PM 19.8 °F 13.2 °F 12.6 °F 74% 30.22 in 10.0 mi WSW 4.6 mph - N/A   Clear
8:15 PM 20.3 °F 12.5 °F 12.2 °F 71% 30.22 in 10.0 mi WSW 5.8 mph - N/A   Clear
8:35 PM 19.9 °F 12.1 °F 12.0 °F 71% 30.22 in 10.0 mi WSW 5.8 mph - N/A   Clear
8:55 PM 16.9 °F 8.5 °F 10.8 °F 77% 30.23 in 10.0 mi WSW 5.8 mph - N/A   Clear
9:15 PM 16.2 °F 6.5 °F 10.4 °F 78% 30.23 in 10.0 mi WSW 6.9 mph - N/A   Clear
9:35 PM 16.7 °F 8.3 °F 10.4 °F 76% 30.23 in 10.0 mi WSW 5.8 mph - N/A   Clear
9:55 PM 16.2 °F 7.6 °F 9.5 °F 75% 30.23 in 10.0 mi WSW 5.8 mph - N/A   Clear
10:15 PM 15.8 °F 7.2 °F 9.3 °F 76% 30.23 in 10.0 mi West 5.8 mph - N/A   Clear
10:35 PM 16.5 °F 8.1 °F 9.5 °F 74% 30.23 in 10.0 mi West 5.8 mph - N/A   Clear
10:55 PM 15.8 °F 8.6 °F 9.1 °F 75% 30.23 in 10.0 mi WSW 4.6 mph - N/A   Clear
11:15 PM 14.9 °F 7.5 °F 8.6 °F 76% 30.23 in 10.0 mi WSW 4.6 mph - N/A   Clear
11:35 PM 12.9 °F 5.2 °F 7.0 °F 77% 30.22 in 10.0 mi West 4.6 mph - N/A   Clear
11:55 PM 11.7 °F 2.3 °F 6.3 °F 79% 30.22 in 10.0 mi West 5.8 mph - N/A   Clear